Regional Weather Roundup
Issued by NWS

Home | Current Version | Previous Version | Text Only | Print | Product List | Glossary Off
Versions: 1 2 3 4 5 6 7 8 9 10 11 12 13 14 15 16 17 18 19 20 21 22 23 24 25 26 27 28 29 30 31 32 33 34 35 36 37 38 39 40 41 42 43 44 45 46 47 48 49 50

000
ASUS43 KMKX 220921
RWRWI

WISCONSIN REGIONAL WEATHER ROUNDUP
NATIONAL WEATHER SERVICE MILWAUKEE/SULLIVAN WI
400 AM CDT TUE AUG 22 2017

NOTE: "FAIR" INDICATES FEW OR NO CLOUDS BELOW 12,000 FEET WITH NO
SIGNIFICANT WEATHER AND/OR OBSTRUCTIONS TO VISIBILITY.

WIZ001-002-006>008-014>016-023>028-221000-
NORTHWEST WISCONSIN

CITY           SKY/WX    TMP DP  RH WIND       PRES   REMARKS
SUPERIOR ARPT    N/A     56  55  99 NW7       29.86R
ASHLAND        CLOUDY    56  55  97 W6        29.84R
HAYWARD        CLOUDY    59  56  89 NW3       29.86R
SIREN          PTCLDY    58  57  96 NW3       29.89R
CUMBERLAND     CLEAR     59  55  88 NW9       29.86S
RICE LAKE      CLEAR     62  59  89 NW6       29.87R
CHETEK         PTCLDY    64  61  92 NW6       29.84S
LADYSMITH      CLOUDY    64  61  91 NW14      29.84S
EAU CLAIRE     CLEAR     64  62  93 W8        29.82S
MENOMONIE      CLEAR     64  62  91 W8        29.85S
NEW RICHMOND   CLEAR     61  60  96 NW8       29.89R
OSCEOLA        CLEAR     62  62 100 NW6       29.92R
$$

WIZ003>005-009-010-017-018-221000-
NORTH CENTRAL WISCONSIN

CITY           SKY/WX    TMP DP  RH WIND       PRES   REMARKS
MANITOWISH WTR CLOUDY    57  57 100 N6        29.80R
ARBOR VITAE    CLOUDY    59  58  96 N12       29.79R
WOODRUFF       CLOUDY    59  58  96 N12       29.79R
RHINELANDER    CLOUDY    64  62  93 NW9       29.77S
EAGLE RIVER    LGT RAIN  60  60 100 NW12      29.77R
LAND O LAKES   CLOUDY    58  58  97 N9        29.79S
PHILLIPS       CLOUDY    58  58  98 NW10      29.81R
TOMAHAWK         N/A     63  61  92 W7        29.77F
MEDFORD        CLOUDY    64  62  93 W9G17     29.79S
MERRILL        CLOUDY    64  64 100 W8        29.77F
$$

WIZ029-030-035-036-043>047-221000-
CENTRAL WISCONSIN

CITY           SKY/WX    TMP DP  RH WIND       PRES   REMARKS
WAUSAU         CLOUDY    65  62  90 W14       29.76S
MOSINEE        CLOUDY    64  63  94 W9G17     29.78F
MARSHFIELD     CLOUDY    65  61  87 W10       29.79F
STEVENS POINT  CLOUDY    64  63  96 W10       29.79F
WAUPACA        CLOUDY    67  64  90 SW8       29.78F
WAUTOMA        CLOUDY    64  63  94 SW8       29.79F
WISC RAPIDS    CLOUDY    65  63  93 W13G18    29.81F
CAMP DOUGLAS   PTCLDY    64  63  97 W9        29.81F
$$

WIZ011>013-019>022-031-037>040-048>050-221000-
NORTHEAST WISCONSIN

CITY           SKY/WX    TMP DP  RH WIND       PRES   REMARKS
ANTIGO         CLOUDY    64  63  97 W10       29.77S
SHAWANO        PTCLDY    67  62  84 W7        29.74F
OCONTO         MOCLDY    66  63  87 W6        29.71F
STURGEON BAY   CLOUDY    68  64  87 W8        29.73F
GREEN BAY      PTCLDY    67  65  93 SW8       29.75F
MANITOWOC        N/A    N/A N/A N/A MISG        N/A
APPLETON       CLOUDY    64  63  94 SW8       29.76F
CLINTONVILLE   MOCLDY    63  61  94 SW5       29.75F
OSHKOSH        CLOUDY    67  63  87 W5        29.78F
$$

WIZ032>034-041-042-053>061-221000-
SOUTHWEST WISCONSIN

CITY           SKY/WX    TMP DP  RH WIND       PRES   REMARKS
LA CROSSE      CLOUDY    70  64  81 W9        29.83F
SPARTA         CLOUDY    61  61  99 W6        29.84F
VIROQUA        MOCLDY    62  62 100 W6        29.87S
BOSCOBEL       CLOUDY    66  63  90 SW6       29.85F
PRAIRIE DU CHI CLOUDY    65  62  89 W6        29.86F
PLATTEVILLE    CLOUDY    65  65 100 W7        29.88F
$$

WIZ056-057-062-063-064-067-068-221000-
SOUTH CENTRAL WISCONSIN

CITY           SKY/WX    TMP DP  RH WIND       PRES   REMARKS
REEDSBURG      CLOUDY    64  64 100 SW8       29.83F
BARABOO/DELLS  CLOUDY    64  61  91 SW7       29.82F
LONE ROCK      MOCLDY    65  64  97 CALM      29.84F
MINERAL POINT  CLOUDY    64  64 100 W5        29.88F
MADISON        CLOUDY    68  63  84 CALM      29.84F
MIDDLETON      CLOUDY    68  65  90 W5        29.85F
WATERTOWN      CLOUDY    67  66  94 SW5       29.84F
MONROE         CLOUDY    66  63  88 W10G17    29.87F
JANESVILLE     CLOUDY    70  68  94 NW14      29.85F
$$

WIZ051-052-058>065-066-070>072-221000-
SOUTHEAST WISCONSIN

CITY           SKY/WX    TMP DP  RH WIND       PRES   REMARKS
MILWAUKEE      CLOUDY    75  69  81 W14       29.81S
WAUKESHA       CLOUDY    68  63  83 W9        29.84S
MILWAUKEE/TIMM CLOUDY    70  63  78 W13       29.83S
RACINE         CLOUDY    74  70  87 W8G17     29.84S
KENOSHA        CLOUDY    73  67  81 W14G23    29.83F
FOND DU LAC    CLOUDY    67  62  84 SW6       29.81S
SHEBOYGAN      CLOUDY    68  68 100 W7        29.79R
WEST BEND      CLOUDY    68  63  83 W8        29.82S
JUNEAU         CLOUDY    65  62  89 W6        29.85R
$$

LSZ147-162-221000-
LAKE SUPERIOR

STATION/POSITION TIME  TEMP    WIND        PRES    WAVE
                       AIR SEA DIR/SP/G            HT/PER
                 (UTC) (F)     (DEG/KT/KT) (MB)    (FT/S)
W MID LAKE BUOY  0850   60 60  310/ 10/ 12 1008.2R   1
DEVILS ISLAND    0900   61     310/  9/ 10 1009.7F
PORT WING        0740   61     310/  7/  9 1010.5
SAXON HARBOR     0840   61     330/  9/ 11 1009.5R
$$

LMZ867-665-643>646-221000-
LAKE MICHIGAN

STATION/POSITION TIME  TEMP    WIND        PRES    WAVE
                       AIR SEA DIR/SP/G            HT/PER
                 (UTC) (F)     (DEG/KT/KT) (MB)    (FT/S)
S GREEN BAY BUOY 0900   70 72  240/ 16/ 19 1006.2
N MID LAKE BUOY  0850   70 68  230/ 14/ 16 1005.3F   2/ 4
NORTHPORT PIER   0840   70     240/  4/  9 1005.4F
KEWAUNEE LAKESHO 0854   71     260/  7/ 11 1006.3F
SHEBOYGAN LAKESH 0900   71     240/  9/ 10 1008.0S
PORT WASHINGTON  0830   73     270/  6/ 10 1010.2R
ATWATER BUOY     0809   73 65  260/ 12/ 14 1009.9R
MILWAUKEE LAKESH 0900   74     280/ 13/ 15   N/A
S MID LAKE BUOY  0850   73 72  240/ 16/ 19 1009.2F   4/ 5
KENOSHA   LAKESH 0900   74     260/ 11/ 15 1009.8
$$

TC  - TEMPERATURE IN CELSIUS
VSB - VISIBILITY IN STATUTE MILES
WCI - WIND CHILL INDEX
HX  - HEAT INDEX




USA.gov is the U.S. government's official web portal to all federal, state and local government web resources and services.